Theta_e
301 303 304 303 303 304 304 304 304 303 303 302 302 302 302 301 302 301 303 305 305 308 312 319 325 328 329 329 329 329 329 329 329 328 327 327 328 328 328 326 323 316 318 322
301 301 301 302 303 304 303 303 303 303 303 302 302 302 302 301 301 302 302 303 304 306 308 316 322 324 330 329 328 328 329 330 329 330 329 329 328 327 329 326 321 318 324 322
301 301 301 301 302 303 303 303 302 304 304 304 303 302 301 301 302 303 303 303 303 304 310 314 322 323 321 329 329 329 329 328 329 331 330 329 329 328 327 324 321 324 324 321
301 301 302 302 302 302 302 302 304 304 303 304 304 305 302 301 302 302 303 304 304 304 305 315 319 323 322 329 328 329 330 329 329 330 330 329 328 327 326 326 323 323 323 320
300 301 301 302 302 302 302 302 303 303 304 305 305 304 301 301 302 302 302 303 303 304 305 310 318 323 324 325 328 328 329 329 329 328 328 328 328 326 327 325 324 324 324 321
301 300 300 301 301 302 302 304 304 305 306 305 303 305 303 301 301 301 302 303 304 304 305 306 317 319 324 325 326 327 328 328 329 328 328 327 327 327 327 326 325 325 324 323
297 299 301 301 301 301 303 303 305 304 306 299 303 304 303 302 302 302 302 302 304 305 305 306 310 318 321 326 326 327 328 328 328 328 327 327 328 327 326 327 326 326 326 324
293 296 300 301 300 301 303 302 301 299 299 299 302 300 303 303 302 303 303 302 303 305 305 306 309 313 319 325 326 326 327 327 329 328 327 328 327 326 327 326 326 327 327 325
296 297 299 298 301 304 306 304 305 304 299 305 305 306 306 306 306 303 302 302 303 305 305 306 309 313 318 325 326 326 327 327 327 327 327 327 328 328 328 325 326 326 325 322
295 297 297 300 303 304 304 304 308 305 304 305 306 305 310 307 311 304 302 302 303 304 306 307 308 314 320 326 326 327 328 327 327 327 327 325 328 328 327 326 326 326 324 318
297 297 298 299 300 303 302 301 303 305 308 306 307 307 306 306 310 313 313 307 306 306 307 310 312 314 318 322 326 326 327 327 326 326 327 326 326 327 327 328 327 325 322 319
297 298 298 298 299 301 300 300 299 301 307 306 306 307 302 303 308 312 311 310 311 312 310 315 318 321 322 324 325 327 327 327 327 326 327 325 326 326 325 325 325 324 321 320
297 298 297 297 301 301 298 299 296 298 301 308 307 307 301 301 307 307 307 306 306 306 310 315 319 321 324 325 326 327 327 326 326 326 326 325 325 324 322 321 320 318 319 316
296 298 298 298 298 298 296 297 295 296 297 301 301 299 297 299 304 304 303 303 303 302 303 307 311 314 318 318 318 319 321 321 321 320 320 318 316 312 308 307 308 307 304 303
296 298 298 298 298 298 295 295 294 293 294 298 299 296 294 294 301 302 301 301 300 300 300 300 301 303 306 308 310 310 311 312 312 313 311 309 307 308 306 306 305 303 303 301
297 296 298 299 300 298 295 293 295 292 291 293 296 294 292 289 293 296 297 297 297 296 296 296 297 299 299 301 303 304 304 304 305 305 303 302 302 301 300 299 301 300 299 299
296 297 297 299 300 302 295 293 294 291 290 291 291 293 291 287 287 286 289 292 292 292 292 293 294 298 299 300 300 301 301 301 301 301 301 302 302 300 300 300 300 299 298 298
295 298 297 297 298 297 296 293 293 293 289 288 288 288 293 288 285 283 284 286 286 290 293 293 296 298 298 301 301 302 301 302 301 301 300 299 300 300 299 300 299 299 299 300
299 299 297 301 300 300 296 293 291 292 291 288 286 286 287 294 291 284 282 286 287 289 293 295 298 299 300 299 300 301 301 300 300 299 299 299 299 299 299 298 297 297 297 297
298 298 296 294 296 296 295 291 290 292 294 288 286 285 284 287 288 283 281 286 291 294 296 297 298 300 300 297 297 301 298 298 298 296 296 296 296 295 293 292 290 289 289 288
297 293 292 292 298 297 292 289 289 291 290 287 285 284 282 282 281 280 282 288 290 291 292 292 293 292 290 289 290 290 290 289 288 289 289 289 289 289 288 288 288 287 287 286
298 295 294 289 295 297 290 289 288 287 286 285 285 283 282 281 281 281 285 286 287 288 288 289 290 290 289 290 290 289 289 287 288 288 289 288 287 287 286 286 285 284 283 282
297 295 295 294 295 291 288 286 286 286 284 285 284 283 282 282 282 283 284 286 286 286 287 287 287 287 287 287 287 287 285 286 286 287 286 285 284 284 283 283 282 282 280 280
295 294 296 296 294 289 286 285 285 284 284 284 283 283 283 283 283 284 285 285 286 286 286 285 286 285 284 284 284 283 283 283 284 284 282 282 281 281 281 280 279 279 278 278
295 294 295 296 294 289 288 285 285 285 284 284 285 285 285 286 286 286 285 284 284 284 284 285 285 284 283 282 282 281 281 281 282 281 280 280 279 278 278 277 277 276 276 276
293 294 297 296 293 291 287 286 286 286 286 286 286 285 284 285 284 284 283 282 282 282 282 282 281 281 280 280 280 279 279 280 280 279 278 277 277 277 277 276 276 276 276 276
Wind_Speed
10 5 10 12 16 18 15 19 21 20 20 15 17 16 12 10 18 15 21 22 25 30 28 23 22 33 34 38 38 41 41 49 41 40 39 36 37 37 33 31 28 27 31 31
6 17 19 16 17 21 20 21 21 22 15 11 17 19 15 13 16 22 24 23 20 25 35 27 25 28 29 39 39 39 40 42 44 46 41 38 39 38 33 32 29 31 30 30
11 16 18 18 18 17 17 17 18 20 15 18 16 18 16 11 15 24 29 32 27 28 28 31 26 22 30 44 39 37 40 39 41 38 36 37 35 38 35 33 34 35 34 33
11 10 10 17 20 19 22 21 20 19 14 15 11 10 16 14 16 18 25 27 29 30 30 30 27 30 31 42 40 38 37 41 43 45 43 41 40 42 41 40 36 36 35 34
17 18 22 21 18 14 11 12 16 18 17 12 15 5 6 13 17 17 15 27 31 30 33 23 35 21 35 38 35 35 36 37 40 39 41 42 44 41 41 38 38 38 37 35
18 28 14 8 11 13 15 12 18 12 9 10 12 11 13 13 23 21 21 30 32 30 32 32 30 32 25 37 35 37 38 35 38 37 37 40 42 44 43 42 41 40 39 35
14 5 1 3 10 9 7 5 2 2 4 5 5 10 20 12 20 22 21 27 33 35 32 34 30 30 25 34 37 37 38 37 37 38 39 40 43 43 42 42 42 42 42 40
6 10 4 3 9 8 11 3 1 4 2 5 5 6 8 16 21 29 36 32 31 34 37 41 37 31 25 31 40 36 37 38 39 38 39 41 39 42 44 43 41 42 40 40
6 7 8 11 9 3 3 4 5 3 4 3 4 5 10 9 9 21 17 22 23 32 37 39 42 31 28 33 35 36 35 33 37 38 39 41 39 45 44 44 39 39 36 40
4 9 8 15 2 3 4 7 3 0 3 4 3 8 3 17 14 14 16 16 22 27 32 34 39 34 28 28 33 35 30 28 31 33 36 38 39 42 42 42 42 38 34 34
8 5 10 10 5 7 9 9 5 6 3 2 4 2 10 16 16 9 5 6 13 25 29 30 35 34 29 25 25 25 27 23 24 28 34 36 37 41 43 44 46 38 33 33
3 4 6 17 7 7 8 12 8 4 2 1 2 2 17 21 13 10 15 20 19 16 22 21 24 25 25 23 22 20 20 21 23 25 28 32 35 41 46 48 45 40 31 35
6 3 7 10 4 4 11 18 22 9 5 4 3 5 17 20 9 18 17 26 30 35 29 25 22 21 19 19 20 21 21 19 23 25 28 32 32 34 36 38 37 34 34 33
17 3 5 5 10 10 15 20 25 15 5 4 8 9 22 25 19 20 27 33 36 38 41 40 35 31 26 22 19 15 12 8 8 13 14 14 12 7 4 4 6 4 4 6
5 3 5 13 12 3 21 20 25 21 17 8 12 13 19 22 18 22 30 36 43 43 46 44 42 37 33 30 26 23 20 15 12 8 12 14 14 12 11 12 15 17 16 15
2 4 6 2 11 7 19 24 18 19 19 10 13 14 17 24 28 36 32 39 41 42 41 44 46 46 45 42 40 38 38 36 33 34 34 31 30 27 26 25 24 21 18 14
4 4 4 4 8 1 7 22 12 18 22 10 11 9 14 21 25 32 34 40 40 38 38 45 45 53 49 49 47 47 43 40 40 38 32 30 26 23 22 21 17 16 15 11
7 7 1 4 4 7 5 17 9 7 25 25 17 16 10 16 32 45 43 41 44 45 49 48 48 49 45 43 39 37 36 35 33 31 27 22 22 22 18 14 15 14 12 11
5 4 4 3 4 1 14 20 12 7 14 24 20 20 22 12 30 44 41 44 44 45 46 45 43 41 41 43 39 37 38 37 35 33 29 26 24 23 21 19 18 17 15 14
6 4 5 4 5 9 13 23 32 10 14 31 27 21 23 21 17 8 30 42 45 44 44 43 43 41 40 40 39 36 37 36 34 29 27 26 24 23 22 21 21 21 20 19
7 5 7 7 6 4 14 33 19 9 4 25 23 21 23 12 13 15 32 43 43 43 42 39 39 41 40 38 37 40 38 39 33 29 27 27 27 27 25 23 21 21 19 17
5 5 4 4 6 6 29 11 8 5 8 14 17 18 21 20 26 34 39 41 41 42 42 41 41 41 38 36 35 37 38 32 27 26 27 27 26 25 23 22 23 22 21 20
4 3 2 4 3 3 6 7 7 5 7 12 12 16 17 25 29 32 38 38 39 39 39 38 39 38 36 34 34 35 33 27 26 25 27 26 24 23 23 22 23 23 22 23
2 4 2 2 4 4 6 6 7 7 8 9 13 15 19 26 28 33 34 35 36 36 36 35 35 36 36 34 33 33 28 26 24 25 26 25 24 24 24 25 26 27 29 29
2 3 1 2 3 5 4 6 6 8 10 13 16 20 23 26 29 30 32 32 33 33 33 33 33 33 33 30 29 28 25 23 24 26 26 27 26 27 27 28 29 28 28 27
3 4 3 3 6 3 3 5 6 8 11 13 16 19 22 24 27 28 31 30 30 30 29 29 30 29 29 27 28 27 26 25 25 27 28 28 28 28 26 26 25 25 24 24
Wind_Direction
265 240 238 236 228 241 260 266 268 270 271 273 274 278 280 288 292 292 287 276 257 247 254 258 220 216 213 208 204 201 200 203 206 207 206 209 210 209 208 215 214 209 209 203
277 256 265 265 257 257 269 278 272 276 272 255 269 271 267 262 268 266 276 280 281 259 245 245 235 219 215 212 209 209 201 201 211 216 211 213 205 209 215 215 211 210 207 210
270 270 305 286 286 290 277 272 274 273 302 279 260 273 262 250 252 272 267 268 263 266 249 226 235 224 229 210 207 211 205 205 208 201 207 204 208 210 214 214 209 207 212 218
272 273 287 301 285 274 272 269 265 271 276 271 202 258 249 242 250 254 258 260 265 261 261 240 221 216 213 227 213 209 209 211 210 215 215 215 212 211 215 217 211 214 218 220
262 291 292 288 287 303 275 281 261 262 260 265 246 254 260 236 244 241 242 251 251 253 257 253 228 220 217 218 216 210 215 216 215 216 222 222 219 213 218 214 216 219 223 226
281 297 290 288 307 262 262 278 257 244 244 245 242 209 246 221 225 237 241 239 252 240 245 244 235 226 224 223 218 211 213 216 216 218 222 224 223 222 223 221 222 227 233 233
328 294 208 337 307 289 235 304 305 218 205 233 171 202 241 237 228 229 232 237 241 239 232 236 237 223 223 220 216 217 210 213 217 218 220 223 226 229 231 234 232 233 240 237
343 325 24 280 295 275 290 225 269 246 236 269 260 243 249 231 229 226 233 232 238 233 228 230 231 232 228 222 214 214 209 216 220 223 224 224 230 233 234 237 240 242 248 245
324 280 315 300 314 294 8 172 274 280 219 251 235 300 326 341 284 228 236 223 228 236 226 219 222 228 223 213 211 213 216 218 222 228 229 229 233 236 236 241 239 244 249 244
271 288 290 328 353 270 275 325 317 312 288 281 304 303 286 328 314 212 225 231 247 238 223 210 214 214 214 208 210 212 220 224 225 233 230 231 238 237 242 242 244 246 247 238
293 225 289 329 30 353 6 2 338 290 222 247 308 269 341 334 344 356 58 219 238 236 203 199 206 206 211 212 208 219 219 227 232 243 238 238 239 243 246 248 247 247 249 239
303 290 286 291 305 238 356 342 337 273 239 176 251 301 347 342 328 42 51 42 53 109 166 171 166 170 186 191 200 204 207 216 228 238 236 233 239 236 235 238 243 245 243 239
337 309 309 338 42 50 3 345 346 318 199 320 21 353 338 340 35 55 61 58 62 75 100 120 133 150 153 155 167 184 198 219 230 225 224 226 230 231 230 226 225 220 223 226
345 260 243 262 284 311 353 359 8 13 30 329 23 350 344 353 31 50 54 60 64 66 73 89 98 101 108 116 122 129 140 147 180 195 201 206 215 228 283 254 232 245 293 247
313 286 284 293 264 153 30 9 15 19 3 32 10 15 354 353 32 50 61 66 62 62 66 71 79 86 89 90 90 91 91 90 89 99 83 75 79 84 89 92 89 95 101 112
336 279 322 307 117 72 39 15 22 18 6 5 17 32 4 6 35 46 49 62 61 58 64 70 78 85 85 88 87 90 90 90 93 90 90 90 88 92 96 95 96 96 97 103
294 307 329 309 324 351 25 9 10 25 27 348 16 3 12 23 38 35 38 54 60 60 63 67 74 86 90 91 92 89 88 89 86 85 85 85 88 87 82 82 88 90 87 85
291 311 277 288 338 40 2 14 358 4 26 15 12 0 28 49 55 45 40 52 58 64 72 76 81 86 86 87 87 89 89 90 89 86 82 85 87 83 84 83 84 87 83 71
268 311 322 14 24 305 7 354 343 352 28 13 6 6 7 52 63 41 39 65 73 78 81 82 85 87 87 88 88 89 86 84 84 85 87 86 84 88 89 86 81 78 77 75
357 34 46 352 72 23 342 337 333 278 37 359 6 16 18 22 63 30 38 73 77 80 84 86 87 86 84 81 83 82 81 81 78 77 78 78 77 76 77 76 73 71 69 68
334 354 43 6 68 37 347 337 353 61 309 342 7 25 38 46 61 63 73 78 79 81 81 82 84 82 83 83 81 79 78 74 76 78 79 78 75 74 74 75 76 72 69 66
353 345 360 11 54 19 359 355 55 327 356 5 29 44 57 67 74 80 82 81 82 83 84 82 81 80 79 79 79 79 77 80 81 79 76 73 72 70 68 66 64 62 56 50
34 10 18 43 77 41 15 61 43 42 52 36 53 64 70 78 78 80 82 82 81 82 82 82 82 82 80 78 76 77 78 76 74 72 71 69 66 64 60 56 53 50 47 44
324 10 84 166 168 128 78 76 60 60 65 78 85 88 89 86 86 86 86 85 84 84 83 83 83 80 77 72 70 70 70 69 65 64 63 60 56 54 53 52 50 48 46 42
261 344 25 73 119 152 47 67 73 81 91 94 95 94 92 95 93 92 89 85 84 83 80 76 74 73 73 72 71 69 65 63 62 62 61 60 58 57 56 54 53 48 44 35
223 190 168 205 164 150 129 104 103 108 100 99 99 96 94 94 95 94 91 90 87 85 83 80 78 76 74 71 69 66 62 58 60 63 66 68 66 63 59 56 53 48 42 33